DW2182 Weather Reports


time (UTC)temp
C
wind
direction
speed
KPH
gust
KPH
rain 1hr
cm
rain 24hr
cm
rain mn
cm
humidity
%
barometer
mb
20260510102517 4 0.0 0.0 0.00 0.00 0.00 61 1017.9
20260510101557 4 135 1.6 6.4 0.00 0.00 0.00 63 1018.0
20260510100517 3 135 3.2 4.8 0.00 0.00 0.00 64 1017.8
20260510095517 3 135 1.6 4.8 0.00 0.00 0.00 64 1017.7
20260510094517 3 0.0 0.0 0.00 0.00 0.00 65 1017.6
20260510093517 3 0.0 0.0 0.00 0.00 0.00 65 1017.5
20260510092557 3 0.0 0.0 0.00 0.00 0.00 64 1017.4
20260510091517 3 0.0 0.0 0.00 0.00 0.00 65 1017.2
20260510090517 4 0.0 0.0 0.00 0.00 0.00 65 1017.0
20260510085517 4 0.0 0.0 0.00 0.00 0.00 63 1017.1
20260510084519 4 0.0 0.0 0.00 0.00 0.00 63 1016.8
20260510083557 4 0.0 0.0 0.00 0.00 0.00 64 1016.7
20260510082517 4 0.0 0.0 0.00 0.00 0.00 63 1016.8
20260510081537 4 0.0 0.0 0.00 0.00 0.00 62 1016.5
20260510080537 5 0.0 0.0 0.00 0.00 0.00 63 1016.5
20260510075537 5 0.0 0.0 0.00 0.00 0.00 62 1016.4
20260510074517 5 0.0 0.0 0.00 0.00 0.00 61 1016.5
20260510073517 5 0.0 0.0 0.00 0.00 0.00 61 1016.5
20260510072517 5 0.0 0.0 0.00 0.00 0.00 61 1016.3
20260510071517 5 0.0 0.0 0.00 0.00 0.00 61 1016.4
20260510070517 5 0.0 0.0 0.00 0.00 0.00 60 1016.4
20260510065517 5 0.0 0.0 0.00 0.00 0.00 59 1016.3
20260510064537 6 0.0 0.0 0.00 0.00 0.00 59 1016.4
20260510063516 6 0.0 0.0 0.00 0.00 0.00 56 1016.4
20260510062516 6 0.0 0.0 0.00 0.00 0.00 55 1016.3
20260510061517 6 0.0 0.0 0.00 0.00 0.00 55 1016.3
20260510060517 6 0.0 0.0 0.00 0.00 0.00 53 1016.3
20260510055517 7 0.0 0.0 0.00 0.00 0.00 51 1016.3
20260510054517 7 0.0 0.0 0.00 0.00 0.00 50 1016.2
20260510053517 7 0.0 0.0 0.00 0.00 0.00 49 1016.4
20260510052517 7 0.0 0.0 0.00 0.00 0.00 48 1016.3
20260510051517 8 0.0 0.0 0.00 0.00 0.00 47 1016.0
20260510050637 8 0.0 0.0 0.00 0.00 0.00 45 1015.9
20260510045537 8 0.0 0.0 0.00 0.00 0.00 44 1015.8
20260510044537 8 0.0 0.0 0.00 0.00 0.00 44 1015.7
20260510043516 9 0.0 0.0 0.00 0.00 0.00 43 1015.7
20260510042517 10 0.0 0.0 0.00 0.00 0.00 43 1015.6
20260510041517 10 0.0 0.0 0.00 0.00 0.00 42 1015.6
20260510040537 10 0.0 0.0 0.00 0.00 0.00 41 1015.5
20260510035537 10 0.0 0.0 0.00 0.00 0.00 40 1015.4
20260510034517 10 0.0 0.0 0.00 0.00 0.00 39 1015.2
20260510033517 11 0.0 0.0 0.00 0.00 0.00 39 1015.2
20260510032519 11 0.0 0.0 0.00 0.00 0.00 38 1015.2
20260510031517 11 0.0 0.0 0.00 0.00 0.00 38 1015.1
20260510030517 11 0.0 1.6 0.00 0.00 0.00 37 1015.1
20260510025517 12 158 1.6 4.8 0.00 0.00 0.00 36 1014.8
20260510024537 12 158 1.6 4.8 0.00 0.00 0.00 36 1014.6
20260510023537 12 158 3.2 6.4 0.00 0.00 0.00 35 1014.4
20260510022517 12 158 1.6 8.0 0.00 0.00 0.00 35 1014.2
20260510021517 12 158 3.2 8.0 0.00 0.00 0.00 35 1013.9
20260510020517 13 0 4.8 9.7 0.00 0.00 0.00 34 1013.8
20260510015517 13 135 4.8 8.0 0.00 0.00 0.00 33 1013.6
20260510014516 13 135 4.8 11.3 0.00 0.00 0.00 32 1013.3
20260510013517 13 0 4.8 12.9 0.00 0.00 0.00 31 1013.1
20260510012537 14 158 6.4 12.9 0.00 0.00 0.00 30 1013.0
20260510011517 14 135 8.0 17.7 0.00 0.00 0.00 30 1012.8
20260510010537 15 135 8.0 16.1 0.00 0.00 0.00 29 1012.6
20260510005517 15 135 8.0 16.1 0.00 0.00 0.00 28 1012.5
20260510004517 15 135 8.0 19.3 0.00 0.00 0.00 28 1012.3
20260510003516 15 158 6.4 16.1 0.00 0.00 0.00 28 1012.2
20260510002516 15 158 6.4 14.5 0.00 0.00 0.00 27 1012.1
20260510001517 15 158 9.7 19.3 0.00 0.00 0.00 25 1011.9
20260510000517 15 135 9.7 24.1 0.00 0.00 0.00 25 1011.8
20260509235517 16 135 9.7 24.1 0.00 0.00 0.00 25 1011.8
20260509234517 16 158 12.9 22.5 0.00 0.00 0.00 26 1011.7
20260509233517 16 158 11.3 25.7 0.00 0.00 0.00 26 1011.7
20260509232517 16 158 12.9 29.0 0.00 0.00 0.00 25 1011.5
20260509231516 16 135 11.3 19.3 0.00 0.00 0.00 25 1011.3
20260509230517 16 0 9.7 17.7 0.00 0.00 0.00 26 1011.2
20260509225516 16 158 14.5 27.4 0.00 0.00 0.00 25 1011.1
20260509224517 16 158 11.3 25.7 0.00 0.00 0.00 24 1010.8
20260509223516 17 0 11.3 22.5 0.00 0.00 0.00 25 1010.7
20260509222516 17 135 12.9 29.0 0.00 0.00 0.00 25 1010.6
20260509221536 17 158 14.5 27.4 0.00 0.00 0.00 24 1010.5
20260509220517 17 135 14.5 25.7 0.00 0.00 0.00 23 1010.5
20260509215517 17 135 12.9 33.8 0.00 0.00 0.00 23 1010.6
20260509214516 17 135 12.9 24.1 0.00 0.00 0.00 24 1010.4
20260509213556 17 158 12.9 27.4 0.00 0.00 0.00 23 1010.3
20260509212536 17 135 14.5 29.0 0.00 0.00 0.00 22 1010.2
20260509211516 17 158 11.3 29.0 0.00 0.00 0.00 25 1010.1
20260509210516 17 158 17.7 33.8 0.00 0.00 0.00 22 1010.0
20260509205537 18 158 16.1 29.0 0.00 0.00 0.00 22 1009.9
20260509204516 18 158 14.5 33.8 0.00 0.00 0.00 22 1009.8
20260509203516 18 135 12.9 27.4 0.00 0.00 0.00 25 1009.6
20260509202517 18 158 12.9 33.8 0.00 0.00 0.00 25 1009.6
20260509201516 18 158 12.9 30.6 0.00 0.00 0.00 26 1009.6
20260509200516 18 158 12.9 25.7 0.00 0.00 0.00 26 1009.5
20260509195516 18 135 14.5 27.4 0.00 0.00 0.00 27 1009.4
20260509194516 18 135 12.9 33.8 0.00 0.00 0.00 28 1009.3
20260509193517 18 135 14.5 30.6 0.00 0.00 0.00 26 1009.3
20260509192517 18 135 14.5 27.4 0.00 0.00 0.00 27 1009.2
20260509191516 18 158 14.5 27.4 0.00 0.00 0.00 28 1009.2
20260509190516 17 158 14.5 30.6 0.00 0.00 0.00 28 1009.1
20260509185536 18 158 14.5 22.5 0.00 0.00 0.00 28 1009.1
20260509184556 18 158 12.9 35.4 0.00 0.00 0.00 27 1009.1
20260509183536 18 135 14.5 25.7 0.00 0.00 0.00 28 1009.0
20260509182516 18 158 12.9 22.5 0.00 0.00 0.00 31 1008.8
20260509181516 18 158 16.1 30.6 0.00 0.00 0.00 29 1008.8
20260509180516 18 158 14.5 37.0 0.00 0.00 0.00 31 1008.9
20260509175516 18 135 11.3 22.5 0.00 0.00 0.00 31 1008.9
20260509174536 17 135 12.9 27.4 0.00 0.00 0.00 33 1008.7
20260509173516 17 158 17.7 30.6 0.00 0.00 0.00 32 1008.7
20260509172516 17 158 16.1 37.0 0.00 0.00 0.00 32 1008.7
20260509171537 17 158 14.5 30.6 0.00 0.00 0.00 35 1008.6
20260509170516 17 135 16.1 29.0 0.00 0.00 0.00 34 1008.7
20260509165516 17 135 11.3 19.3 0.00 0.00 0.00 35 1008.7
20260509164536 16 23 9.7 25.7 0.00 0.00 0.00 35 1008.6
20260509163516 16 158 14.5 30.6 0.00 0.00 0.00 35 1008.4
20260509162536 16 158 14.5 29.0 0.00 0.00 0.00 37 1008.6
20260509161516 15 158 12.9 25.7 0.00 0.00 0.00 41 1008.3
20260509160516 15 158 16.1 35.4 0.00 0.00 0.00 41 1008.3
20260509155556 15 158 11.3 24.1 0.00 0.00 0.00 47 1008.2
20260509154516 14 158 16.1 27.4 0.00 0.00 0.00 50 1008.2
20260509153516 13 135 9.7 20.9 0.00 0.00 0.00 53 1007.9
20260509152536 13 158 12.9 35.4 0.00 0.00 0.00 55 1008.0
20260509151516 13 158 11.3 22.5 0.00 0.00 0.00 56 1007.9
20260509150516 13 158 9.7 20.9 0.00 0.00 0.00 59 1007.6
20260509145516 13 158 11.3 20.9 0.00 0.00 0.00 61 1007.4
20260509144516 13 158 14.5 27.4 0.00 0.00 0.00 61 1007.2
20260509143516 12 158 12.9 24.1 0.00 0.00 0.00 66 1007.3
20260509142536 12 158 12.9 24.1 0.00 0.00 0.00 67 1007.1
20260509141516 13 158 14.5 25.7 0.00 0.00 0.00 66 1007.2
20260509140516 13 158 12.9 25.7 0.00 0.00 0.00 67 1007.1
20260509135516 13 158 12.9 25.7 0.00 0.00 0.00 65 1007.0
20260509134516 13 158 14.5 32.2 0.00 0.00 0.00 66 1006.8
20260509133637 13 135 12.9 22.5 0.00 0.00 0.00 67 1006.5
20260509132516 13 135 11.3 19.3 0.00 0.00 0.00 68 1006.3
20260509131516 13 135 12.9 22.5 0.00 0.00 0.00 69 1006.1
20260509130516 13 135 12.9 32.2 0.00 0.00 0.00 70 1005.7
20260509125516 12 135 12.9 25.7 0.00 0.00 0.00 70 1005.7
20260509124516 12 135 11.3 24.1 0.00 0.00 0.00 67 1005.6
20260509123515 12 135 9.7 17.7 0.00 0.00 0.00 65 1005.6
20260509122536 11 135 9.7 19.3 0.00 0.00 0.00 64 1005.4
20260509121516 11 135 6.4 11.3 0.00 0.00 0.00 65 1005.1
20260509120516 11 135 4.8 12.9 0.00 0.00 0.00 65 1004.9
20260509115515 11 135 3.2 6.4 0.00 0.00 0.00 62 1004.8
20260509114515 11 135 1.6 4.8 0.00 0.00 0.00 60 1004.6
20260509113516 11 0.0 1.6 0.00 0.00 0.00 59 1004.6
20260509112516 11 135 3.2 4.8 0.00 0.00 0.00 59 1005.0
20260509111515 11 113 3.2 6.4 0.00 0.00 0.00 57 1004.8
20260509110515 11 135 3.2 8.0 0.00 0.00 0.00 57 1004.7
20260509105516 11 135 1.6 4.8 0.00 0.00 0.00 56 1004.7
20260509104516 11 135 4.8 11.3 0.00 0.00 0.00 55 1004.5
20260509103515 11 135 3.2 12.9 0.00 0.00 0.00 53 1004.7